[Date Prev][Date Next][Thread Prev][Thread Next] - [Date Index][Thread Index][Author Index]

2 line ISS Keps 6-6



ISS
1 25544U 98067A   01157.49442230  .00024889  00000-0  29100-3 0   483
2 25544  51.5684 142.6695 0017509 128.5925  16.7970 15.61247777145409


----
Via the sarex mailing list at AMSAT.ORG courtesy of AMSAT-NA.
To unsubscribe, send "unsubscribe sarex" to Majordomo@amsat.org



AMSAT Top AMSAT Home